Time,TemperatureF,DewpointF,PressureIn,WindDirection,WindDirectionDegrees,WindSpeedMPH,WindSpeedGustMPH,Humidity,HourlyPrecipIn,Conditions,Clouds,dailyrainin,SolarRadiationWatts/m^2,SoftwareType,DateUTC
2013-03-04 00:00:00,29.7,13.8,30.01,NNW,346,3.0,5.0,51,0.00,,,0.00,0,Wunderground v.1.15,2013-03-04 05:00:00,
2013-03-04 00:05:00,29.6,13.7,30.01,North,355,3.0,9.0,51,0.00,,,0.00,0,Wunderground v.1.15,2013-03-04 05:05:00,
2013-03-04 00:10:00,29.7,13.8,30.01,NE,44,4.0,6.0,51,0.00,,,0.00,0,Wunderground v.1.15,2013-03-04 05:10:00,
2013-03-04 00:15:00,29.7,13.8,30.01,North,5,4.0,6.0,51,0.00,,,0.00,0,Wunderground v.1.15,2013-03-04 05:15:00,
2013-03-04 00:20:00,29.6,13.7,30.01,North,5,3.0,5.0,51,0.00,,,0.00,0,Wunderground v.1.15,2013-03-04 05:20:00,
2013-03-04 00:25:00,29.5,13.6,30.01,NNW,336,3.0,7.0,51,0.00,,,0.00,0,Wunderground v.1.15,2013-03-04 05:25:00,
2013-03-04 00:35:00,29.4,13.5,30.01,NNE,18,4.0,5.0,51,0.00,,,0.00,0,Wunderground v.1.15,2013-03-04 05:35:00,
2013-03-04 00:40:00,29.4,13.5,30.01,North,5,3.0,3.0,51,0.00,,,0.00,0,Wunderground v.1.15,2013-03-04 05:40:00,
2013-03-04 00:45:00,29.2,13.3,30.02,NE,38,2.0,5.0,51,0.00,,,0.00,0,Wunderground v.1.15,2013-03-04 05:45:00,
2013-03-04 00:50:00,29.2,13.3,30.02,NW,317,2.0,5.0,51,0.00,,,0.00,0,Wunderground v.1.15,2013-03-04 05:50:00,
2013-03-04 00:55:00,29.1,13.2,30.01,NNE,24,3.0,5.0,51,0.00,,,0.00,0,Wunderground v.1.15,2013-03-04 05:55:00,
2013-03-04 01:05:00,29.0,13.6,30.02,NNE,21,3.0,4.0,52,0.00,,,0.00,0,Wunderground v.1.15,2013-03-04 06:05:00,
2013-03-04 01:10:00,29.0,13.1,30.01,NNE,22,4.0,5.0,51,0.00,,,0.00,0,Wunderground v.1.15,2013-03-04 06:10:00,
2013-03-04 01:15:00,28.9,13.5,30.02,NNW,347,3.0,5.0,52,0.00,,,0.00,0,Wunderground v.1.15,2013-03-04 06:15:00,
2013-03-04 01:20:00,28.8,13.4,30.02,North,360,3.0,3.0,52,0.00,,,0.00,0,Wunderground v.1.15,2013-03-04 06:20:00,
2013-03-04 01:25:00,28.7,13.3,30.02,NNE,32,3.0,5.0,52,0.00,,,0.00,0,Wunderground v.1.15,2013-03-04 06:25:00,
2013-03-04 01:30:00,28.6,13.2,30.02,NNE,15,3.0,3.0,52,0.00,,,0.00,0,Wunderground v.1.15,2013-03-04 06:30:00,
2013-03-04 01:40:00,28.5,13.1,30.02,NNE,28,2.0,2.0,52,0.00,,,0.00,0,Wunderground v.1.15,2013-03-04 06:40:00,
2013-03-04 01:45:00,28.4,13.0,30.02,NNW,343,2.0,4.0,52,0.00,,,0.00,0,Wunderground v.1.15,2013-03-04 06:45:00,
2013-03-04 01:50:00,28.4,13.0,30.02,NNE,19,3.0,3.0,52,0.00,,,0.00,0,Wunderground v.1.15,2013-03-04 06:50:00,
2013-03-04 01:55:00,28.4,13.4,30.02,NNE,13,3.0,5.0,53,0.00,,,0.00,0,Wunderground v.1.15,2013-03-04 06:55:00,
2013-03-04 02:00:00,28.3,13.3,30.02,NNE,21,2.0,2.0,53,0.00,,,0.00,0,Wunderground v.1.15,2013-03-04 07:00:00,
2013-03-04 02:10:00,28.1,13.1,30.02,NNW,346,2.0,2.0,53,0.00,,,0.00,0,Wunderground v.1.15,2013-03-04 07:10:00,
2013-03-04 02:15:00,28.0,13.5,30.02,North,5,1.0,5.0,54,0.00,,,0.00,0,Wunderground v.1.15,2013-03-04 07:15:00,
2013-03-04 02:20:00,27.9,13.4,30.02,NNW,330,1.0,5.0,54,0.00,,,0.00,0,Wunderground v.1.15,2013-03-04 07:20:00,
2013-03-04 02:25:00,27.8,13.3,30.02,NNE,20,1.0,5.0,54,0.00,,,0.00,0,Wunderground v.1.15,2013-03-04 07:25:00,
2013-03-04 02:30:00,27.7,13.2,30.03,NNE,17,1.0,5.0,54,0.00,,,0.00,0,Wunderground v.1.15,2013-03-04 07:30:00,
2013-03-04 02:35:00,27.6,13.5,30.02,ENE,66,1.0,5.0,55,0.00,,,0.00,0,Wunderground v.1.15,2013-03-04 07:35:00,
2013-03-04 02:45:00,27.7,13.2,30.02,NNE,17,2.0,5.0,54,0.00,,,0.00,0,Wunderground v.1.15,2013-03-04 07:45:00,
2013-03-04 02:50:00,27.8,12.9,30.02,ENE,58,4.0,4.0,53,0.00,,,0.00,0,Wunderground v.1.15,2013-03-04 07:50:00,
2013-03-04 02:55:00,27.9,13.0,30.02,North,355,4.0,5.0,53,0.00,,,0.00,0,Wunderground v.1.15,2013-03-04 07:55:00,
2013-03-04 03:00:00,28.0,12.6,30.02,NNE,30,3.0,6.0,52,0.00,,,0.00,0,Wunderground v.1.15,2013-03-04 08:00:00,
2013-03-04 03:10:00,28.0,12.6,30.03,North,5,3.0,3.0,52,0.00,,,0.00,0,Wunderground v.1.15,2013-03-04 08:10:00,
2013-03-04 03:20:00,28.0,12.6,30.03,NNE,13,4.0,6.0,52,0.00,,,0.00,0,Wunderground v.1.15,2013-03-04 08:20:00,
2013-03-04 03:25:00,28.1,12.7,30.03,NNW,331,4.0,6.0,52,0.00,,,0.00,0,Wunderground v.1.15,2013-03-04 08:25:00,
2013-03-04 03:30:00,28.1,12.3,30.03,NNE,16,4.0,4.0,51,0.00,,,0.00,0,Wunderground v.1.15,2013-03-04 08:30:00,
2013-03-04 03:35:00,28.1,12.7,30.03,NW,325,3.0,5.0,52,0.00,,,0.00,0,Wunderground v.1.15,2013-03-04 08:35:00,
2013-03-04 03:40:00,28.2,12.4,30.03,NNW,346,3.0,3.0,51,0.00,,,0.00,0,Wunderground v.1.15,2013-03-04 08:40:00,
2013-03-04 03:50:00,28.2,12.4,30.03,North,360,3.0,5.0,51,0.00,,,0.00,0,Wunderground v.1.15,2013-03-04 08:50:00,
2013-03-04 03:55:00,28.2,12.4,30.03,North,5,3.0,6.0,51,0.00,,,0.00,0,Wunderground v.1.15,2013-03-04 08:55:00,
2013-03-04 04:00:00,28.1,12.3,30.03,North,360,4.0,5.0,51,0.00,,,0.00,0,Wunderground v.1.15,2013-03-04 09:00:00,
2013-03-04 04:05:00,28.1,12.3,30.03,NNW,330,4.0,5.0,51,0.00,,,0.00,0,Wunderground v.1.15,2013-03-04 09:05:00,
2013-03-04 04:10:00,28.1,12.3,30.03,North,349,4.0,4.0,51,0.00,,,0.00,0,Wunderground v.1.15,2013-03-04 09:10:00,
2013-03-04 04:15:00,28.1,12.3,30.03,North,351,3.0,5.0,51,0.00,,,0.00,0,Wunderground v.1.15,2013-03-04 09:15:00,
2013-03-04 04:25:00,27.9,12.5,30.04,NW,308,3.0,5.0,52,0.00,,,0.00,0,Wunderground v.1.15,2013-03-04 09:25:00,
2013-03-04 04:30:00,27.9,12.5,30.04,NE,49,3.0,5.0,52,0.00,,,0.00,0,Wunderground v.1.15,2013-03-04 09:30:00,
2013-03-04 04:35:00,27.9,12.5,30.04,NW,322,4.0,5.0,52,0.00,,,0.00,0,Wunderground v.1.15,2013-03-04 09:35:00,
2013-03-04 04:40:00,27.9,12.5,30.04,NW,315,3.0,3.0,52,0.00,,,0.00,0,Wunderground v.1.15,2013-03-04 09:40:00,
2013-03-04 04:45:00,27.8,12.4,30.05,NNW,338,3.0,5.0,52,0.00,,,0.00,0,Wunderground v.1.15,2013-03-04 09:45:00,
2013-03-04 04:55:00,27.5,12.6,30.05,NNW,331,3.0,5.0,53,0.00,,,0.00,0,Wunderground v.1.15,2013-03-04 09:55:00,
2013-03-04 05:00:00,27.4,12.5,30.05,NNW,329,2.0,2.0,53,0.00,,,0.00,0,Wunderground v.1.15,2013-03-04 10:00:00,
2013-03-04 05:05:00,27.2,12.7,30.05,NNW,343,2.0,5.0,54,0.00,,,0.00,0,Wunderground v.1.15,2013-03-04 10:05:00,
2013-03-04 05:10:00,27.1,13.1,30.05,NNW,342,1.0,1.0,55,0.00,,,0.00,0,Wunderground v.1.15,2013-03-04 10:10:00,
2013-03-04 05:15:00,26.9,12.9,30.05,WNW,300,1.0,5.0,55,0.00,,,0.00,0,Wunderground v.1.15,2013-03-04 10:15:00,
2013-03-04 05:20:00,26.8,12.8,30.05,NW,316,1.0,5.0,55,0.00,,,0.00,0,Wunderground v.1.15,2013-03-04 10:20:00,
2013-03-04 05:30:00,26.6,12.6,30.06,North,11,1.0,5.0,55,0.00,,,0.00,0,Wunderground v.1.15,2013-03-04 10:30:00,
2013-03-04 05:35:00,26.6,12.6,30.06,NNE,31,1.0,5.0,55,0.00,,,0.00,0,Wunderground v.1.15,2013-03-04 10:35:00,
2013-03-04 05:40:00,26.8,12.4,30.06,North,5,2.0,5.0,54,0.00,,,0.00,0,Wunderground v.1.15,2013-03-04 10:40:00,
2013-03-04 05:45:00,26.9,12.5,30.06,NNE,24,2.0,5.0,54,0.00,,,0.00,0,Wunderground v.1.15,2013-03-04 10:45:00,
2013-03-04 05:50:00,26.9,12.5,30.06,NNE,24,1.0,1.0,54,0.00,,,0.00,0,Wunderground v.1.15,2013-03-04 10:50:00,
2013-03-04 06:00:00,26.9,12.0,30.06,ENE,58,1.0,1.0,53,0.00,,,0.00,0,Wunderground v.1.15,2013-03-04 11:00:00,
2013-03-04 06:05:00,27.1,11.8,30.07,NE,51,2.0,2.0,52,0.00,,,0.00,0,Wunderground v.1.15,2013-03-04 11:05:00,
2013-03-04 06:10:00,27.5,11.7,30.07,NNE,28,3.0,5.0,51,0.00,,,0.00,0,Wunderground v.1.15,2013-03-04 11:10:00,
2013-03-04 06:15:00,27.5,11.7,30.07,NNW,331,3.0,5.0,51,0.00,,,0.00,0,Wunderground v.1.15,2013-03-04 11:15:00,
2013-03-04 06:20:00,27.4,12.1,30.07,North,5,2.0,2.0,52,0.00,,,0.00,0,Wunderground v.1.15,2013-03-04 11:20:00,
2013-03-04 06:25:00,27.2,11.9,30.07,NNE,18,1.0,5.0,52,0.00,,,0.00,0,Wunderground v.1.15,2013-03-04 11:25:00,
2013-03-04 06:35:00,27.1,11.8,30.08,North,360,1.0,5.0,52,0.00,,,0.00,0,Wunderground v.1.15,2013-03-04 11:35:00,
2013-03-04 06:40:00,27.0,12.1,30.08,North,5,0.0,5.0,53,0.00,,,0.00,0,Wunderground v.1.15,2013-03-04 11:40:00,
2013-03-04 06:45:00,26.9,12.0,30.08,North,5,0.0,5.0,53,0.00,,,0.00,7,Wunderground v.1.15,2013-03-04 11:45:00,
2013-03-04 06:50:00,26.9,12.0,30.08,North,5,1.0,1.0,53,0.00,,,0.00,11,Wunderground v.1.15,2013-03-04 11:50:00,
2013-03-04 06:55:00,26.9,12.0,30.08,North,5,1.0,5.0,53,0.00,,,0.00,25,Wunderground v.1.15,2013-03-04 11:55:00,
2013-03-04 07:05:00,26.9,12.0,30.09,North,5,1.0,5.0,53,0.00,,,0.00,54,Wunderground v.1.15,2013-03-04 12:05:00,
2013-03-04 07:10:00,27.0,12.1,30.09,North,5,0.0,5.0,53,0.00,,,0.00,72,Wunderground v.1.15,2013-03-04 12:10:00,
2013-03-04 07:15:00,27.2,12.3,30.09,North,5,0.0,5.0,53,0.00,,,0.00,88,Wunderground v.1.15,2013-03-04 12:15:00,
2013-03-04 07:20:00,27.3,12.0,30.10,NW,316,1.0,5.0,52,0.00,,,0.00,109,Wunderground v.1.15,2013-03-04 12:20:00,
2013-03-04 07:25:00,27.5,12.6,30.10,NW,316,1.0,5.0,53,0.00,,,0.00,132,Wunderground v.1.15,2013-03-04 12:25:00,
2013-03-04 07:30:00,27.8,12.9,30.10,NW,317,1.0,5.0,53,0.00,,,0.00,155,Wunderground v.1.15,2013-03-04 12:30:00,
2013-03-04 07:40:00,28.3,12.5,30.10,NNW,338,1.0,5.0,51,0.00,,,0.00,202,Wunderground v.1.15,2013-03-04 12:40:00,
2013-03-04 07:45:00,28.5,12.2,30.10,North,5,1.0,5.0,50,0.00,,,0.00,225,Wunderground v.1.15,2013-03-04 12:45:00,
2013-03-04 07:50:00,28.7,12.4,30.11,NNE,17,2.0,5.0,50,0.00,,,0.00,246,Wunderground v.1.15,2013-03-04 12:50:00,
2013-03-04 07:55:00,28.9,12.1,30.11,NNE,17,2.0,5.0,49,0.00,,,0.00,269,Wunderground v.1.15,2013-03-04 12:55:00,
2013-03-04 08:00:00,29.3,12.5,30.11,NNE,19,2.0,5.0,49,0.00,,,0.00,292,Wunderground v.1.15,2013-03-04 13:00:00,
2013-03-04 08:10:00,29.8,12.5,30.11,NNE,21,2.0,5.0,48,0.00,,,0.00,330,Wunderground v.1.15,2013-03-04 13:10:00,
2013-03-04 08:15:00,30.1,12.3,30.11,WNW,285,2.0,5.0,47,0.00,,,0.00,350,Wunderground v.1.15,2013-03-04 13:15:00,
2013-03-04 08:20:00,30.3,12.0,30.11,North,355,3.0,3.0,46,0.00,,,0.00,371,Wunderground v.1.15,2013-03-04 13:20:00,
2013-03-04 08:25:00,30.7,11.8,30.11,NNE,32,3.0,5.0,45,0.00,,,0.00,387,Wunderground v.1.15,2013-03-04 13:25:00,
2013-03-04 08:30:00,31.0,11.6,30.11,NE,38,2.0,6.0,44,0.00,,,0.00,406,Wunderground v.1.15,2013-03-04 13:30:00,
2013-03-04 08:35:00,30.7,10.8,30.12,NW,308,4.0,6.0,43,0.00,,,0.00,425,Wunderground v.1.15,2013-03-04 13:35:00,
2013-03-04 08:45:00,31.1,11.7,30.11,West,279,3.0,5.0,44,0.00,,,0.00,461,Wunderground v.1.15,2013-03-04 13:45:00,
2013-03-04 08:50:00,31.4,11.5,30.11,NE,46,3.0,5.0,43,0.00,,,0.00,480,Wunderground v.1.15,2013-03-04 13:50:00,
2013-03-04 08:55:00,31.5,11.5,30.11,NNE,26,4.0,5.0,43,0.00,,,0.00,494,Wunderground v.1.15,2013-03-04 13:55:00,
2013-03-04 09:00:00,31.5,11.5,30.11,NNE,23,5.0,5.0,43,0.00,,,0.00,515,Wunderground v.1.15,2013-03-04 14:00:00,
2013-03-04 09:05:00,31.8,11.3,30.11,NNW,336,4.0,6.0,42,0.00,,,0.00,529,Wunderground v.1.15,2013-03-04 14:05:00,
2013-03-04 09:15:00,31.9,10.8,30.12,West,280,6.0,9.0,41,0.00,,,0.00,563,Wunderground v.1.15,2013-03-04 14:15:00,
2013-03-04 09:20:00,32.0,10.9,30.12,North,9,6.0,6.0,41,0.00,,,0.00,580,Wunderground v.1.15,2013-03-04 14:20:00,
2013-03-04 09:25:00,32.4,11.3,30.12,NNW,343,5.0,6.0,41,0.00,,,0.00,596,Wunderground v.1.15,2013-03-04 14:25:00,
2013-03-04 09:30:00,32.4,10.7,30.12,NNW,340,5.0,5.0,40,0.00,,,0.00,610,Wunderground v.1.15,2013-03-04 14:30:00,
2013-03-04 09:35:00,32.4,10.7,30.12,NE,51,6.0,7.0,40,0.00,,,0.00,622,Wunderground v.1.15,2013-03-04 14:35:00,
2013-03-04 09:40:00,32.6,10.3,30.13,NNE,19,6.0,6.0,39,0.00,,,0.00,636,Wunderground v.1.15,2013-03-04 14:40:00,
2013-03-04 09:50:00,32.9,11.2,30.12,North,360,6.0,6.0,40,0.00,,,0.00,664,Wunderground v.1.15,2013-03-04 14:50:00,
2013-03-04 09:55:00,33.0,10.7,30.12,NNW,340,6.0,6.0,39,0.00,,,0.00,675,Wunderground v.1.15,2013-03-04 14:55:00,
2013-03-04 10:00:00,33.2,10.9,30.12,NNW,347,7.0,9.0,39,0.00,,,0.00,687,Wunderground v.1.15,2013-03-04 15:00:00,
2013-03-04 10:05:00,33.4,11.1,30.12,WSW,242,6.0,9.0,39,0.00,,,0.00,693,Wunderground v.1.15,2013-03-04 15:05:00,
2013-03-04 10:10:00,34.0,11.6,30.12,North,9,5.0,5.0,39,0.00,,,0.00,705,Wunderground v.1.15,2013-03-04 15:10:00,
2013-03-04 10:15:00,33.9,10.9,30.12,ENE,58,6.0,6.0,38,0.00,,,0.00,715,Wunderground v.1.15,2013-03-04 15:15:00,
2013-03-04 10:25:00,34.0,11.6,30.12,WSW,242,6.0,7.0,39,0.00,,,0.00,733,Wunderground v.1.15,2013-03-04 15:25:00,
2013-03-04 10:30:00,34.2,11.2,30.12,North,355,6.0,6.0,38,0.00,,,0.00,744,Wunderground v.1.15,2013-03-04 15:30:00,
2013-03-04 10:35:00,35.0,13.1,30.12,NNE,19,5.0,6.0,40,0.00,,,0.00,751,Wunderground v.1.15,2013-03-04 15:35:00,
2013-03-04 10:40:00,35.5,11.8,30.12,WNW,297,4.0,6.0,37,0.00,,,0.00,761,Wunderground v.1.15,2013-03-04 15:40:00,
2013-03-04 10:45:00,35.9,11.5,30.12,WNW,291,5.0,11.0,36,0.00,,,0.00,772,Wunderground v.1.15,2013-03-04 15:45:00,
2013-03-04 10:50:00,36.3,12.5,30.12,NNW,331,5.0,6.0,37,0.00,,,0.00,779,Wunderground v.1.15,2013-03-04 15:50:00,
2013-03-04 10:55:00,36.5,12.0,30.12,NW,317,5.0,6.0,36,0.00,,,0.00,788,Wunderground v.1.15,2013-03-04 15:55:00,
2013-03-04 11:05:00,36.9,11.8,30.11,NNW,338,6.0,7.0,35,0.00,,,0.00,803,Wunderground v.1.15,2013-03-04 16:05:00,
2013-03-04 11:10:00,36.9,11.8,30.11,ENE,65,6.0,6.0,35,0.00,,,0.00,805,Wunderground v.1.15,2013-03-04 16:10:00,
2013-03-04 11:15:00,37.1,11.3,30.11,NE,43,6.0,6.0,34,0.00,,,0.00,810,Wunderground v.1.15,2013-03-04 16:15:00,
2013-03-04 11:20:00,37.3,12.1,30.11,NNE,21,7.0,7.0,35,0.00,,,0.00,817,Wunderground v.1.15,2013-03-04 16:20:00,
2013-03-04 11:25:00,37.9,12.0,30.11,NNE,20,6.0,7.0,34,0.00,,,0.00,823,Wunderground v.1.15,2013-03-04 16:25:00,
2013-03-04 11:30:00,38.0,11.4,30.10,NNE,28,6.0,6.0,33,0.00,,,0.00,826,Wunderground v.1.15,2013-03-04 16:30:00,
2013-03-04 11:40:00,39.0,13.0,30.10,NNE,26,4.0,9.0,34,0.00,,,0.00,831,Wunderground v.1.15,2013-03-04 16:40:00,
2013-03-04 11:45:00,39.2,13.1,30.10,NNE,33,5.0,9.0,34,0.00,,,0.00,831,Wunderground v.1.15,2013-03-04 16:45:00,
2013-03-04 11:50:00,39.4,12.6,30.09,NNW,340,6.0,7.0,33,0.00,,,0.00,837,Wunderground v.1.15,2013-03-04 16:50:00,
2013-03-04 12:00:00,39.3,13.2,30.10,North,350,7.0,10.0,34,0.00,,,0.00,837,Wunderground v.1.15,2013-03-04 17:00:00,
2013-03-04 12:05:00,39.8,13.0,30.09,NW,311,5.0,10.0,33,0.00,,,0.00,842,Wunderground v.1.15,2013-03-04 17:05:00,
2013-03-04 12:10:00,40.2,13.3,30.09,North,360,4.0,4.0,33,0.00,,,0.00,844,Wunderground v.1.15,2013-03-04 17:10:00,
2013-03-04 12:15:00,40.6,13.7,30.08,North,355,3.0,5.0,33,0.00,,,0.00,844,Wunderground v.1.15,2013-03-04 17:15:00,
2013-03-04 12:20:00,41.4,13.7,30.08,ENE,77,3.0,5.0,32,0.00,,,0.00,840,Wunderground v.1.15,2013-03-04 17:20:00,
2013-03-04 12:30:00,41.2,12.8,30.07,NNW,328,4.0,5.0,31,0.00,,,0.00,837,Wunderground v.1.15,2013-03-04 17:30:00,
2013-03-04 12:35:00,41.4,14.4,30.07,NNW,335,4.0,5.0,33,0.00,,,0.00,837,Wunderground v.1.15,2013-03-04 17:35:00,
2013-03-04 12:40:00,42.0,14.9,30.07,North,351,4.0,6.0,33,0.00,,,0.00,835,Wunderground v.1.15,2013-03-04 17:40:00,
2013-03-04 12:45:00,42.2,14.4,30.07,NNW,331,4.0,6.0,32,0.00,,,0.00,831,Wunderground v.1.15,2013-03-04 17:45:00,
2013-03-04 12:50:00,42.7,14.8,30.07,ENE,75,4.0,4.0,32,0.00,,,0.00,830,Wunderground v.1.15,2013-03-04 17:50:00,
2013-03-04 12:55:00,43.0,14.4,30.06,NW,311,4.0,5.0,31,0.00,,,0.00,826,Wunderground v.1.15,2013-03-04 17:55:00,
2013-03-04 13:05:00,43.7,14.2,30.06,NE,40,4.0,9.0,30,0.00,,,0.00,816,Wunderground v.1.15,2013-03-04 18:05:00,
2013-03-04 13:10:00,44.0,15.3,30.05,WNW,294,4.0,8.0,31,0.00,,,0.00,809,Wunderground v.1.15,2013-03-04 18:10:00,
2013-03-04 13:15:00,44.0,13.7,30.05,NNE,21,6.0,8.0,29,0.00,,,0.00,807,Wunderground v.1.15,2013-03-04 18:15:00,
2013-03-04 13:20:00,44.3,14.8,30.05,West,281,7.0,7.0,30,0.00,,,0.00,800,Wunderground v.1.15,2013-03-04 18:20:00,
2013-03-04 13:25:00,44.6,14.3,30.05,North,5,6.0,7.0,29,0.00,,,0.00,793,Wunderground v.1.15,2013-03-04 18:25:00,
2013-03-04 13:35:00,45.0,13.8,30.04,North,5,5.0,6.0,28,0.00,,,0.00,779,Wunderground v.1.15,2013-03-04 18:35:00,
2013-03-04 13:40:00,45.2,15.6,30.04,NNW,330,4.0,4.0,30,0.00,,,0.00,770,Wunderground v.1.15,2013-03-04 18:40:00,
2013-03-04 13:45:00,45.5,15.0,30.04,WSW,246,5.0,5.0,29,0.00,,,0.00,763,Wunderground v.1.15,2013-03-04 18:45:00,
2013-03-04 13:50:00,46.0,15.5,30.04,North,355,5.0,6.0,29,0.00,,,0.00,756,Wunderground v.1.15,2013-03-04 18:50:00,
2013-03-04 13:55:00,45.8,13.7,30.03,NNW,340,4.0,6.0,27,0.00,,,0.00,744,Wunderground v.1.15,2013-03-04 18:55:00,
2013-03-04 14:00:00,46.0,14.7,30.04,North,355,4.0,5.0,28,0.00,,,0.00,738,Wunderground v.1.15,2013-03-04 19:00:00,
2013-03-04 14:10:00,46.2,14.0,30.03,North,360,6.0,6.0,27,0.00,,,0.00,717,Wunderground v.1.15,2013-03-04 19:10:00,
2013-03-04 14:15:00,46.3,14.1,30.03,West,275,5.0,6.0,27,0.00,,,0.00,707,Wunderground v.1.15,2013-03-04 19:15:00,
2013-03-04 14:20:00,46.5,14.3,30.03,NW,307,5.0,5.0,27,0.00,,,0.00,693,Wunderground v.1.15,2013-03-04 19:20:00,
2013-03-04 14:25:00,47.2,14.0,30.03,NNW,327,5.0,5.0,26,0.00,,,0.00,682,Wunderground v.1.15,2013-03-04 19:25:00,
2013-03-04 14:30:00,47.1,13.9,30.03,NW,315,3.0,3.0,26,0.00,,,0.00,670,Wunderground v.1.15,2013-03-04 19:30:00,
2013-03-04 14:35:00,47.4,13.3,30.03,NNE,31,3.0,5.0,25,0.00,,,0.00,656,Wunderground v.1.15,2013-03-04 19:35:00,
2013-03-04 14:45:00,47.4,11.4,30.03,NNW,333,5.0,5.0,23,0.00,,,0.00,636,Wunderground v.1.15,2013-03-04 19:45:00,
2013-03-04 14:50:00,47.8,11.7,30.03,NNW,338,5.0,5.0,23,0.00,,,0.00,621,Wunderground v.1.15,2013-03-04 19:50:00,
2013-03-04 14:55:00,48.3,12.2,30.03,WNW,301,4.0,7.0,23,0.00,,,0.00,606,Wunderground v.1.15,2013-03-04 19:55:00,
2013-03-04 15:00:00,48.7,12.5,30.03,NNE,30,3.0,8.0,23,0.00,,,0.00,591,Wunderground v.1.15,2013-03-04 20:00:00,
2013-03-04 15:05:00,48.6,11.4,30.03,WNW,300,4.0,8.0,22,0.00,,,0.00,578,Wunderground v.1.15,2013-03-04 20:05:00,
2013-03-04 15:15:00,48.9,11.7,30.02,WNW,294,4.0,5.0,22,0.00,,,0.00,545,Wunderground v.1.15,2013-03-04 20:15:00,
2013-03-04 15:20:00,49.7,12.3,30.02,North,355,2.0,5.0,22,0.00,,,0.00,533,Wunderground v.1.15,2013-03-04 20:20:00,
2013-03-04 15:25:00,49.9,10.4,30.02,NNW,340,3.0,5.0,20,0.00,,,0.00,517,Wunderground v.1.15,2013-03-04 20:25:00,
2013-03-04 15:30:00,49.9,10.4,30.02,NNW,341,5.0,8.0,20,0.00,,,0.00,501,Wunderground v.1.15,2013-03-04 20:30:00,
2013-03-04 15:35:00,49.6,10.1,30.02,North,5,6.0,8.0,20,0.00,,,0.00,485,Wunderground v.1.15,2013-03-04 20:35:00,
2013-03-04 15:40:00,49.6,10.1,30.02,West,265,5.0,5.0,20,0.00,,,0.00,468,Wunderground v.1.15,2013-03-04 20:40:00,
2013-03-04 15:50:00,49.8,9.1,30.02,North,360,5.0,6.0,19,0.00,,,0.00,434,Wunderground v.1.15,2013-03-04 20:50:00,
2013-03-04 15:55:00,49.7,9.0,30.02,North,360,5.0,6.0,19,0.00,,,0.00,417,Wunderground v.1.15,2013-03-04 20:55:00,
2013-03-04 16:00:00,49.8,10.3,30.02,NNW,338,5.0,5.0,20,0.00,,,0.00,397,Wunderground v.1.15,2013-03-04 21:00:00,
2013-03-04 16:05:00,49.9,9.2,30.02,NNE,24,4.0,5.0,19,0.00,,,0.00,325,Wunderground v.1.15,2013-03-04 21:05:00,
2013-03-04 16:10:00,50.3,9.5,30.01,ENE,65,3.0,3.0,19,0.00,,,0.00,362,Wunderground v.1.15,2013-03-04 21:10:00,
2013-03-04 16:20:00,50.9,10.0,30.01,NNE,14,3.0,5.0,19,0.00,,,0.00,325,Wunderground v.1.15,2013-03-04 21:20:00,
2013-03-04 16:25:00,50.9,10.0,30.01,ENE,71,3.0,5.0,19,0.00,,,0.00,309,Wunderground v.1.15,2013-03-04 21:25:00,
2013-03-04 16:30:00,50.6,9.8,30.01,North,9,4.0,4.0,19,0.00,,,0.00,290,Wunderground v.1.15,2013-03-04 21:30:00,
2013-03-04 16:35:00,50.6,9.8,30.01,North,355,4.0,5.0,19,0.00,,,0.00,267,Wunderground v.1.15,2013-03-04 21:35:00,
2013-03-04 16:40:00,50.9,10.0,30.01,North,355,2.0,7.0,19,0.00,,,0.00,248,Wunderground v.1.15,2013-03-04 21:40:00,
2013-03-04 16:45:00,51.2,10.3,30.01,NNE,23,3.0,7.0,19,0.00,,,0.00,225,Wunderground v.1.15,2013-03-04 21:45:00,
2013-03-04 16:50:00,51.0,8.9,30.01,NNE,22,4.0,5.0,18,0.00,,,0.00,202,Wunderground v.1.15,2013-03-04 21:50:00,
2013-03-04 16:55:00,50.8,8.7,30.01,North,11,5.0,5.0,18,0.00,,,0.00,179,Wunderground v.1.15,2013-03-04 21:55:00,
2013-03-04 17:00:00,50.8,9.9,30.02,NE,50,3.0,3.0,19,0.00,,,0.00,156,Wunderground v.1.15,2013-03-04 22:00:00,
2013-03-04 17:05:00,51.1,9.0,30.02,North,5,2.0,5.0,18,0.00,,,0.00,139,Wunderground v.1.15,2013-03-04 22:05:00,
2013-03-04 17:10:00,51.0,10.1,30.02,North,5,3.0,3.0,19,0.00,,,0.00,118,Wunderground v.1.15,2013-03-04 22:10:00,
2013-03-04 17:15:00,51.1,12.5,30.02,NNW,346,2.0,5.0,21,0.00,,,0.00,97,Wunderground v.1.15,2013-03-04 22:15:00,
2013-03-04 17:25:00,51.0,10.1,30.02,NNW,336,2.0,5.0,19,0.00,,,0.00,62,Wunderground v.1.15,2013-03-04 22:25:00,
2013-03-04 17:30:00,50.9,8.8,30.02,North,9,1.0,1.0,18,0.00,,,0.00,39,Wunderground v.1.15,2013-03-04 22:30:00,
2013-03-04 17:35:00,50.9,8.8,30.02,NE,47,1.0,3.0,18,0.00,,,0.00,30,Wunderground v.1.15,2013-03-04 22:35:00,
2013-03-04 17:40:00,50.6,9.8,30.02,NNW,348,1.0,1.0,19,0.00,,,0.00,23,Wunderground v.1.15,2013-03-04 22:40:00,
2013-03-04 17:45:00,50.5,9.7,30.03,NNW,348,1.0,5.0,19,0.00,,,0.00,19,Wunderground v.1.15,2013-03-04 22:45:00,
2013-03-04 17:50:00,50.1,11.6,30.03,North,350,1.0,1.0,21,0.00,,,0.00,16,Wunderground v.1.15,2013-03-04 22:50:00,
2013-03-04 17:55:00,49.9,11.4,30.03,North,350,1.0,5.0,21,0.00,,,0.00,12,Wunderground v.1.15,2013-03-04 22:55:00,
2013-03-04 18:00:00,49.6,10.1,30.03,North,350,0.0,5.0,20,0.00,,,0.00,11,Wunderground v.1.15,2013-03-04 23:00:00,
2013-03-04 18:05:00,49.3,8.7,30.03,North,355,1.0,5.0,19,0.00,,,0.00,7,Wunderground v.1.15,2013-03-04 23:05:00,
2013-03-04 18:10:00,49.0,9.6,30.04,NNE,13,1.0,1.0,20,0.00,,,0.00,0,Wunderground v.1.15,2013-03-04 23:10:00,
2013-03-04 18:15:00,48.7,10.4,30.04,NNE,13,1.0,5.0,21,0.00,,,0.00,0,Wunderground v.1.15,2013-03-04 23:15:00,
2013-03-04 18:25:00,48.1,8.8,30.04,NE,37,1.0,5.0,20,0.00,,,0.00,0,Wunderground v.1.15,2013-03-04 23:25:00,
2013-03-04 18:30:00,47.8,8.6,30.04,NNE,24,1.0,5.0,20,0.00,,,0.00,0,Wunderground v.1.15,2013-03-04 23:30:00,
2013-03-04 18:35:00,47.6,8.4,30.05,NNE,14,2.0,5.0,20,0.00,,,0.00,0,Wunderground v.1.15,2013-03-04 23:35:00,
2013-03-04 18:40:00,47.4,9.4,30.05,NNE,24,2.0,5.0,21,0.00,,,0.00,0,Wunderground v.1.15,2013-03-04 23:40:00,
2013-03-04 18:45:00,47.2,9.2,30.05,NNE,20,2.0,5.0,21,0.00,,,0.00,0,Wunderground v.1.15,2013-03-04 23:45:00,
2013-03-04 18:50:00,47.1,9.1,30.05,NNE,15,2.0,5.0,21,0.00,,,0.00,0,Wunderground v.1.15,2013-03-04 23:50:00,
2013-03-04 19:00:00,46.7,10.8,30.05,North,360,2.0,5.0,23,0.00,,,0.00,0,Wunderground v.1.15,2013-03-05 00:00:00,
2013-03-04 19:10:00,46.4,11.5,30.06,North,355,2.0,2.0,24,0.00,,,0.00,0,Wunderground v.1.15,2013-03-05 00:10:00,
2013-03-04 19:15:00,46.2,11.3,30.06,North,5,1.0,5.0,24,0.00,,,0.00,0,Wunderground v.1.15,2013-03-05 00:15:00,
2013-03-04 19:20:00,46.0,9.2,30.06,North,11,1.0,1.0,22,0.00,,,0.00,0,Wunderground v.1.15,2013-03-05 00:20:00,
2013-03-04 19:25:00,45.7,10.0,30.06,North,11,0.0,5.0,23,0.00,,,0.00,0,Wunderground v.1.15,2013-03-05 00:25:00,
2013-03-04 19:30:00,45.4,10.7,30.06,North,11,0.0,5.0,24,0.00,,,0.00,0,Wunderground v.1.15,2013-03-05 00:30:00,
2013-03-04 19:40:00,44.7,12.7,30.07,North,349,1.0,5.0,27,0.00,,,0.00,0,Wunderground v.1.15,2013-03-05 00:40:00,
2013-03-04 19:45:00,44.5,13.4,30.07,NNW,338,1.0,5.0,28,0.00,,,0.00,0,Wunderground v.1.15,2013-03-05 00:45:00,
2013-03-04 19:50:00,44.2,11.4,30.07,NNW,330,2.0,2.0,26,0.00,,,0.00,0,Wunderground v.1.15,2013-03-05 00:50:00,
2013-03-04 19:55:00,44.1,10.5,30.07,NW,314,2.0,5.0,25,0.00,,,0.00,0,Wunderground v.1.15,2013-03-05 00:55:00,
2013-03-04 20:00:00,44.0,10.4,30.08,NW,314,1.0,1.0,25,0.00,,,0.00,0,Wunderground v.1.15,2013-03-05 01:00:00,
2013-03-04 20:10:00,43.5,10.8,30.08,NW,314,0.0,5.0,26,0.00,,,0.00,0,Wunderground v.1.15,2013-03-05 01:10:00,
2013-03-04 20:15:00,43.4,10.7,30.08,NW,314,0.0,5.0,26,0.00,,,0.00,0,Wunderground v.1.15,2013-03-05 01:15:00,
2013-03-04 20:20:00,43.2,9.7,30.08,NW,314,0.0,5.0,25,0.00,,,0.00,0,Wunderground v.1.15,2013-03-05 01:20:00,
2013-03-04 20:25:00,43.1,9.6,30.08,NW,314,0.0,5.0,25,0.00,,,0.00,0,Wunderground v.1.15,2013-03-05 01:25:00,
2013-03-04 20:30:00,43.1,10.5,30.08,NW,314,0.0,5.0,26,0.00,,,0.00,0,Wunderground v.1.15,2013-03-05 01:30:00,
2013-03-04 20:35:00,43.0,11.2,30.08,North,5,1.0,5.0,27,0.00,,,0.00,0,Wunderground v.1.15,2013-03-05 01:35:00,
2013-03-04 20:45:00,42.5,10.8,30.08,North,5,1.0,5.0,27,0.00,,,0.00,0,Wunderground v.1.15,2013-03-05 01:45:00,
2013-03-04 20:50:00,42.0,10.4,30.09,North,5,2.0,5.0,27,0.00,,,0.00,0,Wunderground v.1.15,2013-03-05 01:50:00,
2013-03-04 20:55:00,41.6,10.9,30.09,North,5,2.0,5.0,28,0.00,,,0.00,0,Wunderground v.1.15,2013-03-05 01:55:00,
2013-03-04 21:00:00,41.3,12.1,30.09,North,9,1.0,1.0,30,0.00,,,0.00,0,Wunderground v.1.15,2013-03-05 02:00:00,
2013-03-04 21:05:00,40.8,12.5,30.09,NNW,331,1.0,5.0,31,0.00,,,0.00,0,Wunderground v.1.15,2013-03-05 02:05:00,
2013-03-04 21:15:00,39.5,13.4,30.10,NNW,331,0.0,5.0,34,0.00,,,0.00,0,Wunderground v.1.15,2013-03-05 02:15:00,
2013-03-04 21:20:00,39.3,11.1,30.09,NNW,331,0.0,5.0,31,0.00,,,0.00,0,Wunderground v.1.15,2013-03-05 02:20:00,
2013-03-04 21:25:00,39.3,10.4,30.09,NNW,331,0.0,5.0,30,0.00,,,0.00,0,Wunderground v.1.15,2013-03-05 02:25:00,
2013-03-04 21:30:00,39.6,13.5,30.10,NNW,331,0.0,5.0,34,0.00,,,0.00,0,Wunderground v.1.15,2013-03-05 02:30:00,
2013-03-04 21:35:00,40.2,11.9,30.10,NNW,344,1.0,5.0,31,0.00,,,0.00,0,Wunderground v.1.15,2013-03-05 02:35:00,
2013-03-04 21:40:00,40.6,10.8,30.10,NNW,346,1.0,5.0,29,0.00,,,0.00,0,Wunderground v.1.15,2013-03-05 02:40:00,
2013-03-04 21:50:00,40.7,10.9,30.10,NNE,15,2.0,5.0,29,0.00,,,0.00,0,Wunderground v.1.15,2013-03-05 02:50:00,
2013-03-04 21:55:00,40.7,10.9,30.09,NNE,19,3.0,5.0,29,0.00,,,0.00,0,Wunderground v.1.15,2013-03-05 02:55:00,
2013-03-04 22:00:00,40.7,10.9,30.09,North,5,3.0,5.0,29,0.00,,,0.00,0,Wunderground v.1.15,2013-03-05 03:00:00,
2013-03-04 22:05:00,40.4,11.4,30.10,North,360,3.0,5.0,30,0.00,,,0.00,0,Wunderground v.1.15,2013-03-05 03:05:00,
2013-03-04 22:10:00,39.8,11.6,30.10,North,5,1.0,5.0,31,0.00,,,0.00,0,Wunderground v.1.15,2013-03-05 03:10:00,
2013-03-04 22:20:00,39.3,13.9,30.10,North,350,1.0,1.0,35,0.00,,,0.00,0,Wunderground v.1.15,2013-03-05 03:20:00,
2013-03-04 22:30:00,37.7,13.1,30.10,NNW,334,0.0,5.0,36,0.00,,,0.00,0,Wunderground v.1.15,2013-03-05 03:30:00,
2013-03-04 22:35:00,37.4,12.8,30.10,NNE,25,0.0,5.0,36,0.00,,,0.00,0,Wunderground v.1.15,2013-03-05 03:35:00,
2013-03-04 22:40:00,37.5,13.6,30.10,NE,55,0.0,5.0,37,0.00,,,0.00,0,Wunderground v.1.15,2013-03-05 03:40:00,
2013-03-04 22:45:00,37.5,12.9,30.10,NE,55,1.0,5.0,36,0.00,,,0.00,0,Wunderground v.1.15,2013-03-05 03:45:00,
2013-03-04 22:50:00,37.6,12.4,30.10,NE,55,1.0,1.0,35,0.00,,,0.00,0,Wunderground v.1.15,2013-03-05 03:50:00,
2013-03-04 22:55:00,37.8,11.9,30.10,NNE,16,1.0,5.0,34,0.00,,,0.00,0,Wunderground v.1.15,2013-03-05 03:55:00,
2013-03-04 23:00:00,37.8,12.6,30.11,NE,41,1.0,1.0,35,0.00,,,0.00,0,Wunderground v.1.15,2013-03-05 04:00:00,
2013-03-04 23:10:00,36.9,14.8,30.10,NNW,341,0.0,5.0,40,0.00,,,0.00,0,Wunderground v.1.15,2013-03-05 04:10:00,
2013-03-04 23:15:00,36.6,13.9,30.11,NNW,341,0.0,5.0,39,0.00,,,0.00,0,Wunderground v.1.15,2013-03-05 04:15:00,
2013-03-04 23:20:00,36.7,11.6,30.10,North,355,1.0,5.0,35,0.00,,,0.00,0,Wunderground v.1.15,2013-03-05 04:20:00,
2013-03-04 23:25:00,37.2,12.0,30.10,North,355,1.0,5.0,35,0.00,,,0.00,0,Wunderground v.1.15,2013-03-05 04:25:00,
2013-03-04 23:35:00,36.6,15.1,30.11,East,95,1.0,5.0,41,0.00,,,0.00,0,Wunderground v.1.15,2013-03-05 04:35:00,
2013-03-04 23:40:00,35.7,14.8,30.11,East,95,1.0,1.0,42,0.00,,,0.00,0,Wunderground v.1.15,2013-03-05 04:40:00,
2013-03-04 23:45:00,35.4,14.6,30.11,East,95,0.0,5.0,42,0.00,,,0.00,0,Wunderground v.1.15,2013-03-05 04:45:00,
2013-03-04 23:50:00,35.5,12.4,30.10,East,95,0.0,5.0,38,0.00,,,0.00,0,Wunderground v.1.15,2013-03-05 04:50:00,